User: anonymous   Login
Location: Unspecified
(0.0000°N, 0.0000°E)
Time: 10:37:19
(UTC+00:00)
Language:

UFO 11 (USA 174) - Orbit

View from above orbital plane
View from above orbital plane
View from above satellite
View from above satellite

Ground track
Ground track

The orbit data is extracted from the following two-line orbital elements,

1 28117U 03057A   18164.16423446 0.00000000  00000-0  00000-0 0    07
2 28117   5.3739  36.0385 0004397 294.2032  65.7557  1.00270000    03
Epoch (UTC): 13 June 2018 03:56:29
Eccentricity: 0.0004397
inclination: 5.3739°
perigee height: 35768 km
apogee height: 35805 km
right ascension of ascending node: 36.0385°
argument of perigee: 294.2032°
revolutions per day: 1.00270000
mean anomaly at epoch: 65.7557°
orbit number at epoch: 0

The dashed part of the orbit path shows where the satellite is in the earth's shadow,  

DLR